Content
SEND FEEDBACK

Daily
Averages
Monthly
Summary
Mexico

PLAYA DEL CARMEN, QUINTANA ROO


Home > North America > Mexico > Quintana Roo
Elevation: 9 meters     Latitude: 20 38N     Longitude: 087 04W

WEATHER
 
SELECT A DAY
Number of Records: 201,821;   Date Range: 2/21/06 - 10/19/14
 
SHARE

PRINT THIS DATA

[ ← Previous Day ]
WEATHER ALMANAC - 26 JANUARY, 2014
[ Next Day → ]
[ °F ]   °C
Weather ElementAverageHighLow
Temperature16.2 °C19 °C (2:35 pm)13 °C (12:35 am)
Dewpoint-8 °C18 °C (4:55 pm) (7:00 pm)
Humidity72.9 %100 % (12:35 am)64 % (12:35 pm)
Barometer1017.9 hPa1020 hPa (10:35 am)1016.6 hPa (3:35 pm)
Wind Speed2.6 km/h9.3 km/h (7:15 am)
Weather ElementAverage
Visibility12.7 km
Wind DirectionENE (65.5 °)

Weather ElementTotal
Precipitation---
Heating Degree Days2.3 (Base 18.3)
Growing Degree Days6 (Base 10)
Averaged from 71 records on 26 January, 2014
WEATHER CONDITIONS BREAKOUT
WIND DIRECTION BREAKOUT
WEATHER BY HOUR - 26 JANUARY, 2014
[ °F ]   °C
Local TimeTemperatureDewpointHumidityBarometerVisibilityWind DirectionWind SpeedGust SpeedPrecipitationEventsConditions
12:35 AM13 °C13 °C100 %1018.6 hPa16.1 kmWSW (240°)5.6 km/hClear
12:55 AM13 °C-17.8 °C1018.3 hPa16.1 kmWSW (240°)5.6 km/hClear
1:15 AM13 °C-17.8 °C1018.3 hPa16.1 kmSW (220°)5.6 km/hScattered Clouds
1:35 AM13 °C-17.8 °C1017.9 hPa16.1 kmCalmScattered Clouds
1:55 AM13 °C-17.8 °C1017.6 hPa16.1 kmCalmScattered Clouds
2:15 AM13 °C-17.8 °C1017.6 hPa16.1 kmSSW (210°)5.6 km/hScattered Clouds
2:35 AM14 °C-17.8 °C1017.3 hPa16.1 kmSouth (190°)5.6 km/hMostly Cloudy
2:55 AM14 °C-17.8 °C1017.3 hPa16.1 kmSouth (190°)5.6 km/hMostly Cloudy
3:15 AM14 °C-17.8 °C1017.3 hPa16.1 kmSSW (200°)7.4 km/hOvercast
3:35 AM14 °C-17.8 °C1017.3 hPa16.1 kmSSW (210°)7.4 km/hOvercast
3:55 AM14 °C-17.8 °C1017.3 hPa16.1 kmSouth (190°)5.6 km/hOvercast
4:15 AM14 °C-17.8 °C1017.3 hPa16.1 kmCalmOvercast
4:35 AM14 °C-17.8 °C1017.6 hPa16.1 kmSW (230°)7.4 km/hOvercast
4:55 AM14 °C-17.8 °C1017.6 hPa16.1 kmCalmOvercast
5:15 AM15 °C-17.8 °C1017.9 hPa16.1 kmNW (320°)5.6 km/hOvercast
5:35 AM15 °C-17.8 °C1017.9 hPa16.1 kmCalmOvercast
5:55 AM15 °C-17.8 °C1017.9 hPa4.8 kmCalmOvercast
6:15 AM15 °C-17.8 °C1018.3 hPa8 kmCalmHaze
6:35 AM15 °C-17.8 °C1018.3 hPa8 kmCalmHaze
6:55 AM15 °C-17.8 °C1018.3 hPa11.3 kmCalmOvercast
7:15 AM15 °C-17.8 °C1018.3 hPa16.1 kmNorth (350°)9.3 km/hOvercast
7:35 AM15 °C-17.8 °C1018.6 hPa16.1 kmNNW (340°)5.6 km/hOvercast
7:55 AM15 °C-17.8 °C1019 hPa16.1 kmCalmOvercast
8:15 AM15 °C-17.8 °C1019 hPa16.1 kmCalmOvercast
8:35 AM15 °C-17.8 °C1019 hPa16.1 kmCalmOvercast
8:55 AM15 °C-17.8 °C1019 hPa11.3 kmNE (50°)9.3 km/hOvercast
9:15 AM15 °C-17.8 °C1019.3 hPa16.1 kmNE (40°)5.6 km/hOvercast
9:35 AM15 °C-17.8 °C1019.3 hPa16.1 kmNNE (20°)9.3 km/hOvercast
9:55 AM16 °C11 °C72 %1019.6 hPa16.1 kmNE (50°)7.4 km/hOvercast
10:15 AM16 °C11 °C72 %1019.6 hPa16.1 kmNorth (10°)5.6 km/hOvercast
10:35 AM16 °C11 °C72 %1020 hPa16.1 kmCalmOvercast
10:55 AM17 °C11 °C68 %1019.6 hPa16.1 kmENE (70°)7.4 km/hOvercast
11:15 AM17 °C11 °C68 %1020 hPa16.1 kmCalmOvercast
11:35 AM17 °C11 °C68 %1019.6 hPa16.1 kmNE (50°)5.6 km/hOvercast
11:55 AM17 °C11 °C68 %1019.3 hPa16.1 kmCalmOvercast
12:15 PM17 °C11 °C68 %1019 hPa16.1 kmCalmOvercast
12:35 PM18 °C11 °C64 %1019 hPa16.1 kmCalmOvercast
12:55 PM17 °C11 °C68 %1018.6 hPa16.1 kmCalmOvercast
1:15 PM18 °C11 °C64 %1018.3 hPa16.1 kmCalmOvercast
1:35 PM18 °C12 °C68 %1017.6 hPa16.1 kmCalmOvercast
1:55 PM18 °C12 °C68 %1017.3 hPa16.1 kmCalmOvercast
2:15 PM18 °C12 °C68 %1017.3 hPa16.1 kmSSE (160°)7.4 km/hOvercast
2:35 PM19 °C13 °C68 %1016.9 hPa16.1 kmSouth (170°)9.3 km/hOvercast
2:55 PM19 °C13 °C68 %1016.9 hPa16.1 kmSouth (190°)7.4 km/hOvercast
3:15 PM19 °C14 °C73 %1016.9 hPa16.1 kmCalmOvercast
3:35 PM19 °C14 °C73 %1016.6 hPa16.1 kmSSW (200°)5.6 km/hOvercast
3:55 PM19 °C14 °C73 %1016.6 hPa16.1 kmSSW (210°)5.6 km/hOvercast
4:15 PM18 °C15 °C83 %1016.9 hPa8 kmCalmHaze
4:35 PM18 °C15 °C83 %1016.9 hPa4.8 kmCalmLight Drizzle
4:55 PM18 °C18 °C100 %1016.9 hPa8 kmCalmOvercast
5:15 PM18 °C-17.8 °C1016.6 hPa11.3 kmCalmOvercast
5:35 PM18 °C-17.8 °C1016.6 hPa11.3 kmCalmOvercast
5:55 PM18 °C-17.8 °C1016.6 hPa11.3 kmCalmOvercast
6:15 PM18 °C-17.8 °C1016.6 hPa11.3 kmCalmOvercast
6:35 PM17 °C-17.8 °C1016.9 hPa11.3 kmCalmOvercast
6:55 PM17 °C-17.8 °C1016.9 hPa8 kmCalmRainRain
7:15 PM17 °C-17.8 °C1016.9 hPa8 kmCalmHaze
7:35 PM17 °C-17.8 °C1016.9 hPa8 kmCalmHaze
7:55 PM17 °C-17.8 °C1016.9 hPa8 kmCalmHaze
8:15 PM17 °C-17.8 °C1016.9 hPa8 kmCalmHaze
8:35 PM17 °C-17.8 °C1017.3 hPa8 kmCalmRainRain
8:55 PM17 °C-17.8 °C1017.3 hPa6.4 kmCalmHaze
9:15 PM17 °C-17.8 °C1017.3 hPa6.4 kmCalmHaze
9:35 PM17 °C-17.8 °C1017.3 hPa6.4 kmCalmHaze
9:55 PM17 °C-17.8 °C1017.3 hPa4.8 kmCalmOvercast
10:15 PM17 °C-17.8 °C1017.3 hPa4.8 kmCalmOvercast
10:35 PM17 °C-17.8 °C1017.6 hPa4.8 kmCalmOvercast
10:55 PM17 °C-17.8 °C1017.3 hPa6.4 kmCalmHaze
11:15 PM17 °C-17.8 °C1017.3 hPa4.8 kmCalmOvercast
11:35 PM17 °C-17.8 °C1016.9 hPa4.8 kmSSE (150°)5.6 km/hOvercast
11:55 PM17 °C-17.8 °C1016.6 hPa6.4 kmSSE (150°)5.6 km/hHaze
Hourly data recorded from KPCM, located 0 kilometers away from Playa del Carmen, Quintana Roo







STORIES FROM OUR PARTNERS